Regional Weather Roundup
Issued by NWS Northern Indiana

Home | Current Version | Previous Version | Graphics & Text | Print | Product List | Glossary On
Versions: 1 2 3 4 5 6 7 8 9 10 11 12 13 14 15 16 17 18 19 20 21 22 23 24 25 26 27 28 29 30 31 32 33 34 35 36 37 38 39 40 41 42 43 44 45 46 47 48 49 50
000
ASUS43 KIWX 012200
RWRIWX

KIWX WEATHER ROUNDUP
NATIONAL WEATHER SERVICE NORTHERN INDIANA
600 PM EDT MON SEP 01 2014

NOTE: "FAIR" INDICATES FEW OR NO CLOUDS BELOW 12,000 FEET WITH NO
SIGNIFICANT WEATHER AND/OR OBSTRUCTIONS TO VISIBILITY.

* THESE STATIONS ARE NOT UNDER NWS QUALITY CONTROL. THEY ALSO MAY NOT
  REPORT WEATHER SUCH AS PRECIPITATION OR FOG.

INZ001>027-012300-
NORTHERN INDIANA

CITY           SKY/WX    TMP DP  RH WIND       PRES   REMARKS
GARY*          PTSUNNY   84  63  48 SW14G25   29.79R
VALPARAISO     SUNNY     83  64  52 SW15G24   29.80R
KNOX*          PTSUNNY   80  67  64 SW9G18    29.79R
SOUTH BEND     MOSUNNY   84  68  58 SW12      29.79R
ELKHART*       SUNNY     82  70  65 SW12      29.79S
GOSHEN         PTSUNNY   81  70  69 W10       29.79S
MONTICELLO*    MOSUNNY   82  69  64 SW17G24   29.82R
ANGOLA*        PTSUNNY   82  75  78 W15       29.79S
FORT WAYNE     PTSUNNY   79  70  74 SW13      29.84R

$$
INZ028>050-012300-
CENTRAL INDIANA

CITY           SKY/WX    TMP DP  RH WIND       PRES   REMARKS
LAFAYETTE      MOSUNNY   80  66  62 W14G21    29.83R
KOKOMO*        PTSUNNY   82  70  65 SW20G31   29.84S
MUNCIE*        CLOUDY    81  70  69 SW12G23   29.87R
INDIANAPOLIS   CLOUDY    82  70  66 SW16G22   29.87F

$$
MIZ043>046-050>051-056>058-064>065-071>073-077>080-012300-
SOUTHWEST LOWER MICHIGAN

CITY           SKY/WX    TMP DP  RH WIND       PRES   REMARKS
BATTLE CREEK   PTSUNNY   80  72  76 SW13      29.77F
BENTON HARBOR  SUNNY     81  66  60 SW16G24   29.76R
COLDWATER*     PTSUNNY   78  73  84 W12       29.79F
HILLSDALE*     HVY RAIN  78  74  86 W14       29.81R
HOLLAND        SUNNY     80  69  69 SW20G26   29.75S
GRAND RAPIDS   PTSUNNY   80  71  74 SW16G25   29.74S
KALAMAZOO      MOSUNNY   81  69  67 SW14G22   29.77R
STURGIS*         N/A     79  73  83 SW8       29.79S
THREE RIVERS*  FAIR      81  70  68 SW10G20   29.78S

$$
OHZ001>008-015>018-024>025-012300-
NORTHWEST OHIO

CITY           SKY/WX    TMP DP  RH WIND       PRES   REMARKS
DEFIANCE       PTSUNNY   81  71  71 SW12      29.81R
FINDLAY        PTSUNNY   84  71  65 S13       29.83S
TOLEDO EXPRESS PTSUNNY   82  69  64 SW10G20   29.78F
TOLEDO METCALF PTSUNNY   85  68  56 SW17G23   29.79F
LIMA           CLOUDY    82  70  66 SW15      29.86S

$$
&&


USA.gov is the U.S. government's official web portal to all federal, state and local government web resources and services.